Weather History for PAOT - May, 2013

Change the Weather History Date:

Saturday, May 4, 2013

  Actual Average Record
Temperature  
Mean Temperature 12 °F 26 °F  
Max Temperature 15 °F 33 °F 48 °F (1953)
Min Temperature 8 °F 19 °F -10 °F (1984)
Degree Days  
Heating Degree Days 53 39  
Month to date heating degree days 212 160  
Since 1 July heating degree days 14115 13940  
Cooling Degree Days 0    
Month to date cooling degree days 0  
Year to date cooling degree days 0  
Moisture  
Dew Point 10 °F    
Average Humidity 0    
Maximum Humidity 0    
Minimum Humidity 0    
Precipitation  
Precipitation T in 0.01 in 0.30 in (1989)
Month to date precipitation T 0.06  
Year to date precipitation 2.74 2.32  
Snow  
Snow T in 0.00 in 0.70 in (1968)
Month to date snowfall T 0.3  
Since 1 July snowfall 31.1 58.9  
Snow Depth 4.00 in    
Sea Level Pressure  
Sea Level Pressure 30.12 in    
Wind  
Wind Speed 11 mph (WSW)    
Max Wind Speed 15 mph    
Max Gust Speed 20 mph    
Visibility 7 miles    
Events Snow    
T = Trace of Precipitation, MM = Missing Value Source: NWS Daily Summary

Daily Weather History Graph

Daily Weather History Graph

Search for Another Location

Airport or City:

Trip Planner

Search our weather history database for the weather conditions in past years. The results will help you decide how hot, cold, wet, or windy it might be!

Date:

Astronomy

May. 04, 2013 Rise Set
Actual Time 5:44 AM AKDT 11:52 PM AKDT
Civil Twilight 3:57 AM AKDT 1:46 AM AKDT
Nautical Twilight Sun does not rise Sun does not rise
Astronomical Twilight Sun does not rise Sun does not rise
Moon 5:11 AM AKDT (5/4) 4:52 PM AKDT (5/4)
Length of Visible Light 21h 48m
Length of Day
18h 08m
Waning Crescent, 25% of the Moon is Illuminated
May 4
Waning Crescent
May 9
New
May 17
First Quarter
May 24
Full
May 31
Last Quarter

Hourly Weather History & Observations

Time (AKDT) Temp. Windchill Dew Point Humidity Pressure Visibility Wind Dir Wind Speed Gust Speed Precip Events Conditions
12:53 AM 9.0 °F -5.9 °F 6.1 °F 88% 30.15 in 10.0 mi West 11.5 mph - N/A   Clear
1:53 AM 9.0 °F -5.9 °F 6.1 °F 88% 30.14 in 10.0 mi West 11.5 mph - N/A   Clear
2:53 AM 8.1 °F -7.7 °F 5.0 °F 87% 30.14 in 10.0 mi West 12.7 mph - N/A   Clear
2:56 AM 8.6 °F -7.0 °F 6.8 °F 92% 30.14 in 10.0 mi West 12.7 mph - N/A   Mostly Cloudy
3:53 AM 12.9 °F -1.6 °F 10.0 °F 88% 30.14 in 9.0 mi WNW 12.7 mph - N/A   Overcast
4:53 AM 10.9 °F 0.2 °F 9.0 °F 92% 30.13 in 6.0 mi WSW 6.9 mph - N/A   Overcast
5:33 AM 12.2 °F 0.7 °F 10.4 °F 92% 30.13 in 2.5 mi West 8.1 mph - 0.00 in Snow Light Snow
5:41 AM 10.4 °F -3.3 °F 8.6 °F 92% 30.13 in 1.5 mi West 10.4 mph - 0.00 in Snow Light Snow
5:44 AM 10.4 °F -4.1 °F 8.6 °F 92% 30.13 in 3.0 mi West 11.5 mph - 0.00 in Snow Light Snow
5:53 AM 12.0 °F -1.3 °F 10.0 °F 92% 30.13 in 6.0 mi West 10.4 mph - 0.00 in   Overcast
6:53 AM 12.0 °F -1.3 °F 10.0 °F 92% 30.12 in 9.0 mi West 10.4 mph - 0.00 in   Overcast
7:40 AM 12.2 °F -1.0 °F 10.4 °F 92% 30.12 in 9.0 mi West 10.4 mph - 0.00 in   Overcast
7:41 AM 12.2 °F -1.0 °F 10.4 °F 92% 30.12 in 9.0 mi West 10.4 mph - 0.00 in   Overcast
7:53 AM 12.9 °F -0.2 °F 10.0 °F 88% 30.12 in 7.0 mi West 10.4 mph - 0.00 in   Overcast
8:53 AM 12.9 °F -0.9 °F 10.9 °F 92% 30.11 in 10.0 mi West 11.5 mph - 0.00 in   Overcast
9:53 AM 12.9 °F -1.6 °F 10.9 °F 92% 30.11 in 10.0 mi West 12.7 mph - N/A   Overcast
10:35 AM 12.2 °F -1.8 °F 10.4 °F 92% 30.10 in 1.8 mi West 11.5 mph - 0.00 in Snow Light Snow
10:45 AM 12.2 °F -1.8 °F 10.4 °F 92% 30.10 in 3.0 mi West 11.5 mph - 0.00 in Snow Light Snow
10:53 AM 12.9 °F -0.9 °F 10.0 °F 88% 30.11 in 5.0 mi West 11.5 mph - 0.00 in   Overcast
11:22 AM 12.2 °F -2.5 °F 8.6 °F 85% 30.10 in 1.8 mi West 12.7 mph - 0.00 in Snow Light Snow
11:39 AM 12.2 °F -2.5 °F 8.6 °F 85% 30.10 in 2.0 mi West 12.7 mph - 0.00 in Snow Light Snow
11:48 AM 12.2 °F -2.5 °F 8.6 °F 85% 30.10 in 1.5 mi West 12.7 mph - 0.00 in Snow Light Snow
11:53 AM 12.0 °F -2.7 °F 9.0 °F 88% 30.10 in 1.2 mi West 12.7 mph - 0.00 in Snow Light Snow
12:23 PM 12.2 °F -1.8 °F 10.4 °F 92% 30.11 in 3.0 mi West 11.5 mph - 0.00 in Snow Light Snow
12:53 PM 12.0 °F -0.4 °F 10.0 °F 92% 30.11 in 8.0 mi WSW 9.2 mph - 0.00 in   Overcast
1:53 PM 12.0 °F -0.4 °F 9.0 °F 88% 30.12 in 3.0 mi WSW 9.2 mph - 0.00 in Snow Light Snow
2:53 PM 12.9 °F 1.6 °F 10.0 °F 88% 30.12 in 3.0 mi West 8.1 mph - 0.00 in Snow Light Snow
3:53 PM 14.0 °F 2.9 °F 10.0 °F 84% 30.12 in 3.0 mi West 8.1 mph - 0.00 in Snow Light Snow
4:27 PM 14.0 °F 2.9 °F 10.4 °F 86% 30.11 in 6.0 mi West 8.1 mph - 0.00 in   Scattered Clouds
4:53 PM 14.0 °F 3.9 °F 10.0 °F 84% 30.11 in 7.0 mi WSW 6.9 mph - 0.00 in   Clear
5:12 PM 14.0 °F 6.5 °F 8.6 °F 79% 30.11 in 7.0 mi WSW 4.6 mph - N/A   Partly Cloudy
5:53 PM 14.0 °F 2.0 °F 10.0 °F 84% 30.10 in 10.0 mi WSW 9.2 mph - N/A   Scattered Clouds
6:53 PM 16.0 °F 6.3 °F 12.0 °F 84% 30.10 in 10.0 mi SW 6.9 mph - N/A   Partly Cloudy
7:53 PM 15.1 °F 4.2 °F 10.9 °F 84% 30.10 in 10.0 mi SW 8.1 mph - N/A   Overcast
8:53 PM 16.0 °F 6.3 °F 12.0 °F 84% 30.10 in 10.0 mi WSW 6.9 mph - N/A   Overcast
9:24 PM 17.6 °F 8.2 °F 12.2 °F 79% 30.10 in 10.0 mi SW 6.9 mph - N/A   Overcast
9:53 PM 17.1 °F 6.6 °F 12.9 °F 84% 30.11 in 10.0 mi SW 8.1 mph - N/A   Overcast
10:53 PM 17.1 °F 8.7 °F 14.0 °F 88% 30.11 in 10.0 mi SW 5.8 mph - N/A   Overcast
11:53 PM 19.0 °F 11.1 °F 15.1 °F 85% 30.12 in 10.0 mi SSW 5.8 mph - N/A   Overcast